Home   Weather   Bridgeport   Past weeks

Flag for USA Past Weather in Bridgeport, Connecticut, USA — Yesterday and Last 2 Weeks

Now
67 °F

Overcast.


Feels Like: 67 °F
Forecast: 61 / 78 °F
Wind: 7 mph from Northeast

Location: Sikorsky Memorial Airport

Current Time: Jul 25, 2017 at 10:52:48 pm

Latest Report: Jul 25, 2017 at 9:52 pm


Visibility: 10 mi

Pressure: 30.21 "Hg

Humidity: 71%

Dew Point: 57 °F

Location of BridgeportLocation

Past Weather in Bridgeport — Graph

°F

Bridgeport Temperature Yesterday

Maximum temperature yesterday: 71 °F (at 12:44 am)
Minimum temperature yesterday: 61 °F (at 9:52 am)
Average temperature yesterday: 65 °F

High & Low Weather Summary for the Past Weeks

 TemperatureHumidityPressure
High93 °F (Jul 19, 3:52 pm)97% (Jul 11, 5:52 am)30.20 "Hg (Jul 11, 5:52 am)
Low61 °F (Jul 24, 9:52 am)30% (Jul 19, 3:52 pm)29.72 "Hg (Jul 23, 2:52 am)
Average75 °F75%29.95 "Hg
* Reported Jul 10 9:52 pm — Jul 25 9:11 pm, Bridgeport. Weather by CustomWeather, © 2017

Note: Actual official high and low records may vary slightly from our data, if they occured in-between our weather recording intervals... More about our weather records

Advertising

Bridgeport Weather History for the Previous 24 Hours

Scroll right to see more
 ConditionsComfort  
Time TempWeatherWind HumidityBarometerVisibility
9:11 pm
Tue, Jul 25
67 °FOvercast.9 mph71%30.20 "Hg10 mi
8:52 pm67 °FOvercast.9 mph71%30.19 "Hg10 mi
7:52 pm68 °FOvercast.9 mph68%30.18 "Hg10 mi
6:52 pm69 °FOvercast.8 mph66%30.16 "Hg10 mi
5:52 pm69 °FMostly cloudy.6 mph66%30.15 "Hg10 mi
5:18 pm69 °FMostly cloudy.7 mph66%30.15 "Hg10 mi
4:52 pm68 °FOvercast.8 mph68%30.15 "Hg10 mi
3:52 pm68 °FOvercast.9 mph68%30.14 "Hg10 mi
2:52 pm67 °FOvercast.5 mph71%30.13 "Hg10 mi
1:52 pm68 °FOvercast.6 mph68%30.12 "Hg10 mi
12:52 pm66 °FLight rain. Overcast.6 mph73%30.11 "Hg10 mi
11:52 am65 °FLight rain. Overcast.3 mph73%30.11 "Hg10 mi
10:52 am64 °FLight rain. Mostly cloudy.8 mph75%30.09 "Hg10 mi
9:52 am62 °FLight rain. Overcast.12 mph78%30.08 "Hg10 mi
8:52 am62 °FLight rain. Overcast.10 mph78%30.07 "Hg10 mi
7:52 am61 °FLight rain. Overcast.8 mph81%30.06 "Hg10 mi
6:52 am61 °FLight rain. Overcast.10 mph81%30.03 "Hg10 mi
5:52 am61 °FLight rain. Overcast.10 mph81%30.02 "Hg10 mi
4:52 am61 °FLight rain. Overcast.8 mph83%30.00 "Hg10 mi
3:52 am62 °FLight rain. Overcast.7 mph78%29.99 "Hg10 mi
2:52 am62 °FLight rain. Overcast.8 mph78%29.99 "Hg10 mi
1:52 am62 °FLight rain. Overcast.8 mph78%29.99 "Hg10 mi
12:52 am62 °FLight rain. Overcast.9 mph78%29.98 "Hg10 mi
11:52 pm
Mon, Jul 24
62 °FLight rain. Overcast.8 mph80%29.96 "Hg10 mi
11:07 pm62 °FLight rain. Passing clouds.8 mph80%29.96 "Hg10 mi
10:52 pm62 °FLight rain. Passing clouds.8 mph80%29.94 "Hg10 mi
Weather by CustomWeather, © 2017

See weather overviewHow to use our weather pages